Retour au catalogue

QIANFAN-21

ActifCommunicationsPO
NORAD 61554·PAYLOAD·🇨🇳 China

Lancé Oct 15, 2024 depuis Taiyuan Satellite Launch Center

Loading…

Prochains Passages (prochaines 24 heures)

TLE

FraisSource: Space-Track

Époque: Sep 14, 2026, 13:57 UTC

1 61554U 24185C   26257.58191319  .00000473  00000-0  20385-3 0  9995
2 61554  88.9768  44.6767 0010796 172.9267 187.2080 14.22929466109191

Suivez QIANFAN-21 en temps réel avec AllMySat

Download on the App Store